TimeMST,TemperatureF,Dew PointF,Humidity,Sea Level PressureIn,VisibilityMPH,Wind Direction,Wind SpeedMPH,Gust SpeedMPH,PrecipitationIn,Events,Conditions,WindDirDegrees,DateUTC
12:53 AM,10.9,7.0,84,30.24,10.0,NNW,5.8,-,N/A,,Clear,340,2013-01-23 07:53:00
1:53 AM,10.9,6.1,81,30.26,10.0,NW,6.9,-,N/A,,Clear,320,2013-01-23 08:53:00
2:53 AM,10.9,6.1,81,30.27,10.0,North,10.4,-,N/A,,Clear,350,2013-01-23 09:53:00
3:53 AM,9.0,5.0,84,30.28,10.0,NNW,15.0,-,N/A,,Clear,340,2013-01-23 10:53:00
4:53 AM,6.1,3.0,87,30.33,10.0,NNW,11.5,-,N/A,,Clear,340,2013-01-23 11:53:00
5:37 AM,6.8,1.4,79,30.18,6.0,NNW,12.7,-,N/A,,Partly Cloudy,340,2013-01-23 12:37:00
5:53 AM,6.1,1.9,83,30.36,9.0,NNW,10.4,-,N/A,,Partly Cloudy,340,2013-01-23 12:53:00
6:53 AM,3.9,-0.0,84,30.39,10.0,NNW,9.2,-,N/A,,Clear,330,2013-01-23 13:53:00
7:53 AM,3.9,-0.9,80,30.41,10.0,NNW,3.5,-,N/A,,Clear,340,2013-01-23 14:53:00
8:53 AM,5.0,-0.9,76,30.47,10.0,North,8.1,-,N/A,,Clear,350,2013-01-23 15:53:00
9:53 AM,8.1,-0.0,70,30.49,10.0,North,9.2,-,N/A,,Clear,360,2013-01-23 16:53:00
10:53 AM,9.0,-0.0,67,30.49,10.0,NNE,8.1,-,N/A,,Clear,20,2013-01-23 17:53:00
11:53 AM,10.0,-0.0,64,30.48,10.0,NNE,6.9,-,N/A,,Clear,20,2013-01-23 18:53:00
12:53 PM,10.0,-2.0,58,30.49,10.0,North,4.6,-,N/A,,Clear,360,2013-01-23 19:53:00
1:53 PM,10.0,-0.9,61,30.48,10.0,NE,6.9,-,N/A,,Clear,50,2013-01-23 20:53:00
2:53 PM,8.1,-0.9,67,30.47,10.0,NE,6.9,-,N/A,,Clear,50,2013-01-23 21:53:00
3:53 PM,8.1,-0.9,67,30.49,10.0,East,8.1,-,N/A,,Clear,80,2013-01-23 22:53:00
4:53 PM,6.1,-2.0,69,30.51,10.0,East,8.1,-,N/A,,Clear,100,2013-01-23 23:53:00
5:53 PM,3.9,-2.9,73,30.51,10.0,East,6.9,-,N/A,,Clear,100,2013-01-24 00:53:00
6:53 PM,3.0,-2.9,76,30.50,10.0,SE,9.2,-,N/A,,Clear,130,2013-01-24 01:53:00
7:53 PM,3.9,-2.9,73,30.49,10.0,ESE,12.7,-,N/A,,Clear,120,2013-01-24 02:53:00
8:53 PM,3.9,-2.0,76,30.46,10.0,ESE,12.7,-,N/A,,Clear,120,2013-01-24 03:53:00
9:53 PM,3.0,-2.0,80,30.45,10.0,ESE,15.0,20.7,N/A,,Clear,120,2013-01-24 04:53:00
10:53 PM,3.0,-2.0,80,30.42,10.0,SE,15.0,-,N/A,,Clear,130,2013-01-24 05:53:00
11:53 PM,3.0,-2.0,80,30.40,10.0,ESE,15.0,25.3,N/A,,Clear,120,2013-01-24 06:53:00